Location: Ariel
(45.9570°N, 122.5700°W)
Time: 14:02:47
(UTC-07:00)

Transit 4A - Pass Details

Date: 25 July 2019
Orbit: 864 x 981 km, 66.8° (Epoch: 25 August)

Event Time Altitude Azimuth Distance (km) Brightness Sun altitude
Rises 07:02:09 0° 321° (NW) 3,690 10.8 11.5°
Reaches altitude 10° 07:06:47 10° 351° (N) 2,729 10.5 12.3°
Maximum altitude 07:09:10 12° 13° (NNE) 2,568 10.7 12.7°
Drops below altitude 10° 07:11:32 10° 35° (NE) 2,708 11.3 13.1°
Sets 07:16:05 0° 65° (ENE) 3,627 12.8 13.8°
